Other Surface Observations
Issued by NWS

Home | Current Version | Previous Version | Text Only | Print | Product List | Glossary On
Versions: 1 2 3 4 5 6 7 8 9 10 11 12 13 14 15 16 17 18 19 20 21 22 23 24 25 26 27 28 29 30 31 32 33 34 35 36 37 38 39 40 41 42 43 44 45 46 47 48 49 50
711
SXUS52 KTAE 112118
OSOTAE
OSOTAE
North Florida/South Alabama/Southwest Georgia Weather Roundup
National Weather Service Tallahassee Florida
400 PM EST THU FEB 11 2016

Note: "fair" indicates few or no clouds below 12,000 feet with no
significant weather and/or obstructions to visibility.

!FLZ017-115-028-034-025-112200
...North Florida...

CITY           SKY/WX    TMP DP  RH WIND       PRES   REMARKS
TALLAHASSEE    MOSUNNY   73  43  33 SW17      30.14S
APALACHICOLA   SUNNY     67  51  56 W15       30.19F
PERRY          SUNNY     63  50  63 S10G23    30.20S
CROSS CITY       N/A     65  48  54 SW12      30.21F
JACKSONVILLE   MOSUNNY   68  38  33 SW12      30.15F
$$

!FLZ112-006-005-002-011-112200
...Florida Panhandle...

CITY           SKY/WX    TMP DP  RH WIND       PRES   REMARKS
MARIANNA       SUNNY     70  46  42 SW16G24   30.12F
BONIFAY        FAIR      67  49  52 SW15G22   30.13F
PANAMA CITY NW FAIR      66  51  58 SW18G29   30.15S
TYNDALL AFB    SUNNY     67  53  59 W13       30.18
TYND DRONE APT FAIR      65  55  67 MISG      30.18F
DE FUNIAK SPR  FAIR      67  52  58 SW13G18   30.13S
EGLIN AFB      MOSUNNY   67  54  63 SW18      30.12F
DESTIN         SUNNY     66  56  70 SW9       30.15F
HURLBURT       SUNNY     65  53  64 SW18G28   30.13F
CRESTVIEW      SUNNY     69  52  54 S17G24    30.13F
PENSACOLA      MOSUNNY   69  54  58 SW22      30.13F
$$

!ALZ063-066-112200
...South Alabama...

CITY           SKY/WX    TMP DP  RH WIND       PRES   REMARKS
DOTHAN         SUNNY     71  44  37 SW15      30.12F
OZARK CAIRNS   SUNNY     72  48  43 S16       30.08F
FT RUCKER HELI SUNNY     72  43  35 SW12G21   30.08F
RUCKER HELI 3  FAIR      71  44  38 SW10G18   30.10S
RUCKER HELI 2  NOT AVBL
FLORALA APT    SUNNY     70  49  47 SW14G23   30.11F
ANDALUSIA      SUNNY     77  44  30 W9        30.08F
TROY           SUNNY     72  44  36 SW8       30.08F
EUFALA         FAIR      72  42  34 SW8G20    30.06F
MOBILE         SUNNY     71  55  56 SW14      30.11F
$$

!GAZ120>161-112200
...Southwest and South Central Georgia...

CITY           SKY/WX    TMP DP  RH WIND       PRES   REMARKS
THOMASVILLE    FAIR      70  41  35 W12G21    30.13F
BAINBRIDGE     SUNNY     72  45  37 SW14G20   30.12S
MOODY AFB      SUNNY     69  40  34 SW16G23   30.11F
VALDOSTA       SUNNY     68  44  42 VRB7G20   30.13F
MOULTRIE       SUNNY     70  41  35 SW9       30.12F
BLAKELY        SUNNY     72  45  37 SW16G23   30.10F
ALBANY         SUNNY     69  40  34 SW15G23   30.11F
TIFTON         FAIR      67  42  40 SW10G17   30.10F
FITZGERALD     FAIR      68  40  35 SW10G17   30.12S
CORDELE        FAIR      69  42  36 SW13G23   30.10S
AMERICUS       FAIR      68  41  37 SW12      30.10R
HOMERVILLE     FAIR      70  45  40 W10G18    30.13S
$$

!GMZ750-755-770-775-112200
...Coastal and Buoy Obs...

STATION/POSITION TIME  TEMP    WIND        PRES    VSBY  WAVE
                       AIR SEA DIR/SP/G                  HT/PER
                 (UTC) (F)     (DEG/KT/KT) (MB)    (MI)  (FT/S)
KEATON BEACH     2100   54     180/ 15/ 17 1022.8F
CEDAR KEY        2100   55     220/  7/  9 1024.5S
C TOWER          NOT AVBL
APALACHICOLA BUO 2050   65 67  230/ 10/ 14 1023.7F         3/ 7
PANAMA CITY BUOY 2050   67 70  240/ 12/ 16 1023.4F         3/ 6
MOBILE BUOY      NOT AVBL
ORANGE BCH AL BU 2050   64 65  230/ 19/ 23 1020.3F         5/ 6
$$




USA.gov is the U.S. government's official web portal to all federal, state and local government web resources and services.